This demonstration page uses our WeatherBlox Daily Observations layout. Learn more.

Left ArrowRight Arrow

44.31136, -96.79839

Hourly Observations for July 30, 2015

Temp ( °F °C ) Dew Point ( °F °C ) Humidity (%) Winds ( mph kmh ) Pressure ( in mb ) Visibility ( mi km ) Precip ( " mm )
12:15 am 00:15 Clear 64 18 54 12 68 68 SW 6 9 30.09 1019 10 16 0.00 0.00
12:35 am 00:35 Clear 63 17 54 12 73 73 S 6 9 30.09 1019 10 16 0.00 0.00
12:55 am 00:55 Clear 61 16 54 12 77 77 Calm 30.09 1019 10 16 0.00 0.00
1:15 am 01:15 Clear 61 16 54 12 77 77 SSW 3 6 30.09 1019 10 16 0.00 0.00
1:35 am 01:35 Clear 61 16 54 12 77 77 Calm 30.09 1019 10 16 0.00 0.00
1:55 am 01:55 Clear 61 16 54 12 77 77 Calm 30.09 1019 10 16 0.00 0.00
2:15 am 02:15 Clear 61 16 54 12 77 77 SSW 3 6 30.09 1019 10 16 0.00 0.00
2:35 am 02:35 Clear 63 17 54 12 73 73 SW 3 6 30.09 1019 10 16 0.00 0.00
2:55 am 02:55 Clear 61 16 54 12 77 77 SSW 5 7 30.09 1019 10 16 0.00 0.00
3:15 am 03:15 Clear 61 16 54 12 77 77 S 5 7 30.09 1019 10 16 0.00 0.00
3:35 am 03:35 Clear 61 16 54 12 77 77 Calm 30.09 1019 10 16 0.00 0.00
3:55 am 03:55 Clear 61 16 54 12 77 77 S 3 6 30.09 1019 10 16 0.00 0.00
4:15 am 04:15 Clear 61 16 52 11 72 72 S 3 6 30.09 1019 10 16 0.00 0.00
4:35 am 04:35 Clear 61 16 52 11 72 72 Calm 30.12 1020 10 16 0.00 0.00
4:55 am 04:55 Clear 61 16 52 11 72 72 S 3 6 30.12 1020 10 16 0.00 0.00
5:15 am 05:15 Clear 61 16 52 11 72 72 Calm 30.12 1020 10 16 0.00 0.00
5:35 am 05:35 Clear 57 14 52 11 82 82 Calm 30.15 1021 10 16 0.00 0.00
5:55 am 05:55 Clear 55 13 52 11 88 88 ENE 5 7 30.15 1021 10 16 0.00 0.00
6:15 am 06:15 Sunny 57 14 52 11 82 82 ENE 5 7 30.15 1021 10 16 0.00 0.00
6:35 am 06:35 Sunny 57 14 52 11 82 82 Calm 30.15 1021 10 16 0.00 0.00
6:55 am 06:55 Sunny 57 14 52 11 82 82 Calm 30.15 1021 10 16 0.00 0.00
7:15 am 07:15 Sunny 61 16 54 12 77 77 Calm 30.12 1020 10 16 0.00 0.00
7:35 am 07:35 Sunny 61 16 54 12 77 77 Calm 30.12 1020 10 16 0.00 0.00
7:55 am 07:55 Sunny 64 18 55 13 73 73 Calm 30.12 1020 10 16 0.00 0.00
8:15 am 08:15 Sunny 64 18 55 13 73 73 Calm 30.12 1020 10 16 0.00 0.00
8:35 am 08:35 Sunny 64 18 55 13 73 73 N 6 9 30.12 1020 10 16 0.00 0.00
8:55 am 08:55 Sunny 66 19 57 14 73 73 N 5 7 30.12 1020 10 16 0.00 0.00
9:15 am 09:15 Sunny 68 20 57 14 69 69 NW 5 7 30.12 1020 10 16 0.00 0.00
9:35 am 09:35 Sunny 70 21 57 14 64 64 NNW 6 9 30.09 1019 10 16 0.00 0.00
9:55 am 09:55 Sunny 73 23 59 15 61 61 NNW 5 7 30.09 1019 10 16 0.00 0.00
10:15 am 10:15 Sunny 73 23 59 15 61 61 NNW 7 11 30.09 1019 10 16 0.00 0.00
10:35 am 10:35 Sunny 75 24 57 14 54 54 NNW 6 9 30.09 1019 10 16 0.00 0.00
10:55 am 10:55 Sunny 75 24 57 14 54 54 N 8 13 30.09 1019 10 16 0.00 0.00
11:15 am 11:15 Sunny 79 26 57 14 48 48 NW 8 13 30.06 1018 10 16 0.00 0.00
11:35 am 11:35 Sunny 79 26 57 14 48 48 NNW 7 11 30.06 1018 10 16 0.00 0.00
11:55 am 11:55 Sunny 81 27 55 13 42 42 NNW 9 15 30.09 1019 10 16 0.00 0.00
12:15 pm 12:15 Sunny 81 27 54 12 39 39 W 6 9 30.09 1019 10 16 0.00 0.00
12:35 pm 12:35 Sunny 81 27 55 13 42 42 WNW 7 11 30.09 1019 10 16 0.00 0.00
12:55 pm 12:55 Sunny 81 27 55 13 42 42 NNW 7 11 30.09 1019 10 16 0.00 0.00
1:15 pm 13:15 Sunny 82 28 54 12 37 37 NW 8 13 30.06 1018 10 16 0.00 0.00
1:35 pm 13:35 Sunny 82 28 54 12 37 37 W 9 15 30.06 1018 10 16 0.00 0.00
1:55 pm 13:55 Sunny 82 28 55 13 40 40 WNW 8 13 30.06 1018 10 16 0.00 0.00
2:15 pm 14:15 Sunny 82 28 55 13 40 40 W 8 13 30.06 1018 10 16 0.00 0.00
2:35 pm 14:35 Sunny 82 28 55 13 40 40 W 9 15 30.06 1018 10 16 0.00 0.00
2:55 pm 14:55 Sunny 82 28 54 12 37 37 W 12 19 30.06 1018 10 16 0.00 0.00
3:15 pm 15:15 Sunny 82 28 55 13 40 40 W 14 22 30.06 1018 10 16 0.00 0.00
3:35 pm 15:35 Sunny 82 28 55 13 40 40 W 12 19 30.06 1018 10 16 0.00 0.00
3:55 pm 15:55 Sunny 82 28 55 13 40 40 W 12 19 30.06 1018 10 16 0.00 0.00
4:15 pm 16:15 Sunny 84 29 55 13 37 37 W 9 15 30.06 1018 10 16 0.00 0.00
4:35 pm 16:35 Sunny 84 29 55 13 37 37 W 10 17 30.06 1018 10 16 0.00 0.00
4:55 pm 16:55 Sunny 84 29 55 13 37 37 W 10 17 30.03 1017 10 16 0.00 0.00
5:15 pm 17:15 Sunny 84 29 54 12 35 35 W 14 22 30.03 1017 10 16 0.00 0.00
5:35 pm 17:35 Sunny 84 29 55 13 37 37 WNW 8 13 30.03 1017 10 16 0.00 0.00
5:55 pm 17:55 Sunny 82 28 54 12 37 37 WNW 10 17 30.03 1017 10 16 0.00 0.00
6:15 pm 18:15 Sunny 82 28 54 12 37 37 W 9 15 30.03 1017 10 16 0.00 0.00
6:35 pm 18:35 Sunny 82 28 55 13 40 40 W 8 13 30.03 1017 10 16 0.00 0.00
6:55 pm 18:55 Sunny 82 28 57 14 42 42 WSW 7 11 30.03 1017 10 16 0.00 0.00
7:15 pm 19:15 Sunny 82 28 61 16 48 48 WSW 6 9 30.03 1017 10 16 0.00 0.00
7:35 pm 19:35 Sunny 81 27 61 16 51 51 WSW 7 11 30.03 1017 10 16 0.00 0.00
7:55 pm 19:55 Sunny 81 27 61 16 51 51 WSW 6 9 30.00 1016 10 16 0.00 0.00
8:15 pm 20:15 Sunny 79 26 61 16 54 54 WSW 6 9 30.00 1016 10 16 0.00 0.00
8:35 pm 20:35 Sunny 79 26 61 16 54 54 SW 5 7 30.00 1016 10 16 0.00 0.00
8:55 pm 20:55 Clear 75 24 63 17 65 65 WSW 3 6 30.03 1017 10 16 0.00 0.00
9:15 pm 21:15 Clear 73 23 63 17 69 69 W 3 6 30.03 1017 10 16 0.00 0.00
9:35 pm 21:35 Clear 73 23 63 17 69 69 Calm 30.06 1018 10 16 0.00 0.00
9:55 pm 21:55 Clear 72 22 61 16 69 69 W 5 7 30.06 1018 10 16 0.00 0.00
10:15 pm 22:15 Mostly Cloudy 70 21 61 16 73 73 NW 7 11 30.06 1018 10 16 0.00 0.00
10:35 pm 22:35 Mostly Cloudy 70 21 61 16 73 73 NW 5 7 30.09 1019 10 16 0.00 0.00
10:55 pm 22:55 Cloudy 70 21 59 15 69 69 NW 3 6 30.09 1019 10 16 0.00 0.00
11:15 pm 23:15 Cloudy 70 21 59 15 69 69 Calm 30.09 1019 10 16 0.00 0.00
11:35 pm 23:35 Cloudy 68 20 59 15 73 73 Calm 30.12 1020 10 16 0.00 0.00
11:55 pm 23:55 Cloudy 68 20 59 15 73 73 Calm 30.12 1020 10 16 0.00 0.00

Powered by AerisWeather